Regional Weather Roundup
Issued by NWS Goodland, KS

Home | Current Version | Previous Version | Graphics & Text | Print | Product List | Glossary On
Versions: 1 2 3 4 5 6 7 8 9 10 11 12 13 14 15 16 17 18 19 20 21 22 23 24 25 26 27 28 29 30 31 32 33 34 35 36 37 38 39 40 41 42 43 44 45 46 47 48 49 50
000
ASUS43 KGLD 301159
RWRGLD

GOODLAND FORECAST AREA HOURLY WEATHER ROUNDUP
NATIONAL WEATHER SERVICE GOODLAND KS
600 AM MDT SAT JUL 30 2016

...OFFICIAL OBSERVATIONS...

CITY           SKY/WX    TMP DP  RH WIND       PRES   REMARKS
GOODLAND KS    CLOUDY    61  59  93 S5        30.03S
HILL CITY KS   CLEAR     67  65  93 CALM      29.99F
IMPERIAL NEB   CLEAR     63  60  90 SE7       30.00F
MCCOOK NEB     PTCLDY    65  63  93 CALM      30.00S FOG
AKRON CO       MOCLDY    61  57  87 N5        30.07R
BURLINGTON CO  CLOUDY    64  58  80 S8        30.05R
LIMON CO       CLOUDY    60  59  96 S7        30.11F
$$

...UNOFFICIAL OBSERVATIONS...

CITY           SKY/WX    TMP DP  RH WIND       PRES   REMARKS
LENORA KS        N/A     66  32  28 MISG        N/A
NORTON KS      PTCLDY    64  63  94 SE5       30.00S
SHARON SPRINGS   N/A     66  63  89 S8G16       N/A
KIT CARSON CO    N/A     64  59  83 MISG        N/A
YUMA CO          N/A     62  58  88 CALM        N/A
$$




USA.gov is the U.S. government's official web portal to all federal, state and local government web resources and services.